Regional Weather Roundup
Issued by NWS San Diego, CA

Home | Current Version | Previous Version | Text Only | Print | Product List | Glossary On
Versions: 1 2 3 4 5 6 7 8 9 10 11 12 13 14 15 16 17 18 19 20 21 22 23 24 25 26 27 28 29 30 31 32 33 34 35 36 37 38 39 40 41 42 43 44 45 46 47 48 49 50
000
ASUS46 KSGX 232311
RWRSGX

SAN DIEGO HOURLY WEATHER ROUNDUP
NATIONAL WEATHER SERVICE SAN DIEGO CA
400 PM PDT FRI JUN 23 2017

NOTE: "FAIR" INDICATES FEW OR NO CLOUDS BELOW 12,000 FEET WITH NO
SIGNIFICANT WEATHER AND/OR OBSTRUCTIONS TO VISIBILITY.

CAZ042-043-060-061-PZZ750-775-240000-

GREATER SAN DIEGO AREA

CITY           SKY/WX    TMP DP  RH WIND       PRES   REMARKS
SAN DIEGO AP   PTSUNNY   73  61  65 NW12      29.91F
NATIONAL CITY    N/A     73  64  73 W6        29.90F
CHULA VISTA      N/A     72  64  76 W8        29.82F
IMPERIAL BEACH PTSUNNY   69  60  73 W12       29.91F
BROWN FIELD    MOSUNNY   75  61  61 NW9       29.89F
MIRAMAR MCAS   MOSUNNY   77  59  53 NW6       29.89F
MONTGOMERY FLD MOSUNNY   77  60  55 VRB5      29.89F
GILLESPIE FLD  SUNNY     81  61  50 W8        29.88F

$$

NORTH SAN DIEGO COUNTY

CITY           SKY/WX    TMP DP  RH WIND       PRES   REMARKS
CAMP PENDLETON MOSUNNY   70  62  76 SW9       29.89F
OCEANSIDE AP   CLOUDY    71  62  73 W10       29.89F
OCEANSIDE HBR    N/A     66  62  87 SW3       29.93F
VISTA            N/A     73  63  71 W3        29.87F
CARLSBAD       MOSUNNY   69  61  75 W5        29.89F
DEL MAR          N/A     68  63  83 CALM      29.92F
LA JOLLA SCRIP   N/A     66  63  90 W5        29.90F
FALLBROOK        N/A     76  65  67 S3        29.89F
ESCONDIDO        N/A     80  64  56 CALM      29.89F
SAN MARCOS       N/A     73  63  69 W9        29.91F
POWAY            N/A     80  64  56 CALM      29.89F

$$

EAST SAN DIEGO COUNTY

CITY           SKY/WX    TMP DP  RH WIND       PRES   REMARKS
RAMONA         SUNNY     81  63  54 W8        29.91S
SANTEE LAKES     N/A     80  64  56 SW7       29.86F
LA MESA          N/A     79  63  58 W3        29.82F
JAMUL            N/A     80  66  61 CALM      29.87F
DESCANSO N       N/A     83  64  50 W3        29.76S
CAMPO            N/A     85  61  44 S10       29.91F

$$

ORANGE COUNTY AND THE LOS ANGELES BASIN

CITY           SKY/WX    TMP DP  RH WIND       PRES   REMARKS
JOHN WAYNE AP  MOSUNNY   72  61  68 SW13      29.89F
LAGUNA BEACH     N/A     70  63  78 SW3       29.85F
LAKE FOREST FR   N/A     83  60  45 W5        29.77F
HUNTINGTON BCH   N/A     70  63  77 SW5       29.91S
LOS ALAMITOS   SUNNY     76  62  62 S12       29.88F
FULLERTON      MOSUNNY   83  63  50 SW9       29.86F
LONG BEACH     SUNNY     76  58  53 NW9       29.88F
L.A. AP        PTSUNNY   68  60  75 W14       29.90S
L.A. DOWNTOWN  SUNNY     73  61  65 VRB6      29.88F

$$

THE INLAND EMPIRE

CITY           SKY/WX    TMP DP  RH WIND       PRES   REMARKS
CORONA         SUNNY     83  63  50 W13G18    29.86F
CHINO          MOSUNNY   88  61  40 W16       29.87F
ONTARIO        MOSUNNY   89  60  37 W13       29.87S
SAN BERNARDINO SUNNY     97  55  24 W12       29.86F HAZE    HX  95
RIVERSIDE AP   SUNNY     88  62  41 W14G20    29.86F
MORENO VALLEY    N/A     95  63  34 W7          N/A  HX  96
MARCH ARB      SUNNY     91  58  32 W14       29.88F
HORSETHIEF CYN   N/A     88  55  32 NE7       29.84F
PERRIS           N/A     92  59  33 NW9       29.87S
HEMET EAST       N/A     96  53  23 SW6       29.87S
FRENCH VALLEY  FAIR      86  61  42 S12       29.89S
TEMECULA         N/A     87  63  44 S8        29.89F

$$

SAN BERNARDINO AND RIVERSIDE COUNTY MOUNTAINS

CITY           SKY/WX    TMP DP  RH WIND       PRES   REMARKS
BIG BEAR AP    SUNNY     86  34  15 W12       30.26F
ANGELUS OAKS     N/A     90  46  21 W1        29.68S
PINE COVE        N/A     84  45  25 NW3       29.76S

$$

SOUTHERN DESERT INCLUDING THE COACHELLA VALLEY

CITY           SKY/WX    TMP DP  RH WIND       PRES   REMARKS
PALM SPRINGS   SUNNY    114  48  11 E12       29.70F HX 110
THOUSAND PALMS   N/A    109  59  19 SE6       29.66F HX 110
PALM DESERT      N/A    110  64  22 SE5       29.52S HX 114
THERMAL        SUNNY    107  60  21 SE9       29.64F HX 108
BLYTHE         SUNNY    113  50  12 S21       29.67F HX 110
IMPERIAL AP    PTSUNNY  110  61  20 SE13      29.65F HX 112
EL CENTRO NAS  MOSUNNY  109  58  18 SE8       29.67F HX 109
YUMA AZ        MOSUNNY  109  50  14 S9        29.69F HX 106
MEXICALI       MOSUNNY  106  48  14 S9        29.69F HX 102

$$

UPPER DESERT

CITY           SKY/WX    TMP DP  RH WIND       PRES   REMARKS
VICTORVILLE AP SUNNY    108  30   7 W14G20    29.90F HX 100
HESPERIA         N/A    104  40  11 W9        29.83F HX  99
PALMDALE       SUNNY    108  23   5 SW20G25   29.89F HX  99
LANCASTER      SUNNY    109  32   7 SW20G26   29.87S HX 101
EDWARDS AFB    MOSUNNY  110  30   6 SW12G23   29.83S HX 102
DAGGETT        SUNNY    113  22   4 W16G23    29.79F HX 104
29 PALMS N     SUNNY    113  12   3 NW17G24   29.85F HX 103
NEEDLES        PTSUNNY  118  32   5 VRB5      29.67F HX 109

$$

REGIONAL REPORTS

CITY           SKY/WX    TMP DP  RH WIND       PRES   REMARKS
SANTA BARBARA  MOSUNNY   66  58  75 W13       29.91F
SANDBERG       SUNNY     99  44  15 VRB7G23   30.11S HX  95
LAS VEGAS NV   MOSUNNY  112  19   4 VRB3      29.78F HX 103
PHOENIX AZ     MOSUNNY  111  47  12 W14G23    29.70F HX 107
TIJUANA        PTSUNNY   75  61  60 W8        29.91F
ENSENADA NW      N/A     68  32  26 W2        29.89S

$$

OFFSHORE ISLANDS

CITY           SKY/WX    TMP DP  RH WIND       PRES   REMARKS
CATALINA ARPT  MOSUNNY   60  56  86 SW14      29.93F FOG
SAN CLEMENTE I CLOUDY    63  56  78 W13       29.94F
SAN NICOLAS IS PTSUNNY   64  57  78 W10       29.93F

$$

MARINE AND OFFSHORE BUOY REPORTS

STATION/POSITION SKY/WX   TEMP    WIND        PRES    VSBY  SWELL
                          AIR SEA DIR/SP/G                  HT/PER/DIR
                          (F)     (DEG/KT/KT) (MB)    (MI)  (FT/S/D)
TANNER BANKS               60 62  300/  6/  8 1013.8          7/210/16
S CLEMENTE BASIN              64  280/ 10/ 12 1013.4          5/200/15
SAN NICOLAS IS.               61                N/A           5/300/13
SO. S. ROSA ISLA           59 61  280/  8/ 10 1013.6          5/180/15
W. S. BARBARA CH           59 60  290/  8/ 10 1013.5F         5/210/16
M. S. BARBARA CH           60 64  270/ 10/ 14 1013.9F         3/250/11
S. MONICA BASIN            63 66  280/ 10/ 14 1012.9F         3/180/16
S PEDRO CHANNEL               66                N/A           3/150/14
CMP PENDLETON NS              68                N/A           3/210/15
OCEANSIDE OFFSHR              67                N/A           3/220/17
TORREY PINES OTR              69                N/A           3/210/17
SAN DIEGO BAY                 72              1012.6F
POINT LOMA SOUTH              69                N/A           3/210/17

$$




USA.gov is the U.S. government's official web portal to all federal, state and local government web resources and services.